Newcastle, WY

12:34 AM MST on December 16, 2019 (GMT -0700)
Mondell

Weather History for KECS - October, 2019

Change the Weather History Date:

Saturday, October 12, 2019

  Actual Average (KCUT) Record (KCUT)
Temperature  
Mean Temperature 34 °F -  
Max Temperature 46 °F 61 °F 78 °F (1975)
Min Temperature 23 °F 32 °F 12 °F (2006)
Degree Days  
Heating Degree Days 30    
Moisture  
Dew Point 20 °F    
Average Humidity 60    
Maximum Humidity 86    
Minimum Humidity 32    
Precipitation  
Precipitation 0.00 in - - ()
Sea Level Pressure  
Sea Level Pressure 29.99 in    
Wind  
Wind Speed 10 mph (NNW)    
Max Wind Speed 21 mph    
Max Gust Speed 32 mph    
Visibility 10 miles    
Events      
Averages and records for this station are not official NWS values.
T = Trace of Precipitation, MM = Missing Value Source: NWS Daily Summary

Daily Weather History Graph

Daily Weather History Graph

Search for Another Location

Airport or City:

Astronomy

Oct. 12, 2019 Rise Set
Actual Time 7:07 AM MDT 6:18 PM MDT
Civil Twilight 6:38 AM MDT 6:47 PM MDT
Nautical Twilight 6:05 AM MDT 7:21 PM MDT
Astronomical Twilight 5:32 AM MDT 7:54 PM MDT
Moon 6:19 PM MDT (10/12) 5:42 AM MDT (10/12)
Length of Visible Light 12h 08m
Length of Day
11h 11m
Waxing Gibbous, 99% of the Moon is Illuminated
Oct 12
Waxing Gibbous
Oct 13
Full
Oct 21
Last Quarter
Oct 27
New
Nov 4
First Quarter

Hourly Weather History & Observations

Time (MDT) Temp. Windchill Dew Point Humidity Pressure Visibility Wind Dir Wind Speed Gust Speed Precip Events Conditions
12:15 AM 26.6 °F 19.1 °F 19.4 °F 74% 30.07 in 10.0 mi North 6.9 mph - N/A   Clear
12:35 AM 26.6 °F 19.1 °F 19.4 °F 74% 30.07 in 10.0 mi North 6.9 mph - N/A   Clear
12:55 AM 26.6 °F 18.2 °F 19.4 °F 74% 30.06 in 10.0 mi North 8.1 mph - N/A   Clear
1:15 AM 24.8 °F 15.3 °F 19.4 °F 80% 30.06 in 10.0 mi North 9.2 mph - N/A   Clear
1:35 AM 26.6 °F 16.8 °F 17.6 °F 69% 30.06 in 10.0 mi North 10.4 mph - N/A   Clear
1:55 AM 24.8 °F 15.3 °F 17.6 °F 74% 30.06 in 10.0 mi North 9.2 mph - N/A   Clear
2:15 AM 24.8 °F 15.3 °F 17.6 °F 74% 30.06 in 10.0 mi North 9.2 mph - N/A   Clear
2:35 AM 24.8 °F 15.3 °F 17.6 °F 74% 30.06 in 10.0 mi North 9.2 mph - N/A   Clear
2:55 AM 23.0 °F 13.9 °F 17.6 °F 80% 30.04 in 10.0 mi North 8.1 mph - N/A   Clear
3:15 AM 23.0 °F 15.8 °F 17.6 °F 80% 30.04 in 10.0 mi North 5.8 mph - N/A   Clear
3:35 AM 23.0 °F 15.8 °F 19.4 °F 86% 30.04 in 10.0 mi NNW 5.8 mph - N/A   Clear
3:55 AM 26.6 °F 18.2 °F 19.4 °F 74% 30.03 in 10.0 mi WNW 8.1 mph - N/A   Clear
4:15 AM 23.0 °F 14.7 °F 17.6 °F 80% 30.02 in 10.0 mi NNW 6.9 mph - N/A   Clear
4:35 AM 23.0 °F 13.9 °F 19.4 °F 86% 30.03 in 10.0 mi North 8.1 mph - N/A   Clear
4:55 AM 23.0 °F 14.7 °F 19.4 °F 86% 30.02 in 10.0 mi NNW 6.9 mph - N/A   Clear
5:15 AM 23.0 °F 13.1 °F 19.4 °F 86% 30.04 in 10.0 mi North 9.2 mph - N/A   Clear
5:35 AM 26.6 °F 16.2 °F 19.4 °F 74% 30.04 in 10.0 mi NNW 11.5 mph - N/A   Clear
5:55 AM 26.6 °F 16.8 °F 19.4 °F 74% 30.04 in 10.0 mi NNW 10.4 mph - N/A   Clear
6:15 AM 26.6 °F 18.2 °F 19.4 °F 74% 30.03 in 10.0 mi NNW 8.1 mph - N/A   Clear
6:55 AM 24.8 °F 17.9 °F 19.4 °F 80% 30.04 in 10.0 mi NNW 5.8 mph - N/A   Clear
7:15 AM 23.0 °F 14.7 °F 19.4 °F 86% 30.03 in 10.0 mi North 6.9 mph - N/A   Clear
7:35 AM 23.0 °F 13.9 °F 19.4 °F 86% 30.03 in 10.0 mi North 8.1 mph - N/A   Clear
7:55 AM 23.0 °F 14.7 °F 19.4 °F 86% 30.03 in 10.0 mi NNW 6.9 mph - N/A   Clear
8:15 AM 26.6 °F 19.1 °F 19.4 °F 74% 30.03 in 10.0 mi NNW 6.9 mph - N/A   Clear
8:35 AM 28.4 °F 20.4 °F 19.4 °F 69% 30.04 in 10.0 mi North 8.1 mph - N/A   Clear
8:55 AM 30.2 °F 21.9 °F 19.4 °F 64% 30.03 in 10.0 mi NNW 9.2 mph - N/A   Clear
9:15 AM 30.2 °F 21.3 °F 19.4 °F 64% 30.03 in 10.0 mi NW 10.4 mph - N/A   Clear
9:35 AM 32.0 °F 22.5 °F 19.4 °F 60% 30.02 in 10.0 mi NW 12.7 mph - N/A   Clear
9:55 AM 32.0 °F 23.0 °F 19.4 °F 60% 30.02 in 10.0 mi NW 11.5 mph - N/A   Clear
10:15 AM 32.0 °F 22.1 °F 21.2 °F 64% 30.02 in 10.0 mi NNW 13.8 mph 17.3 mph N/A   Clear
10:35 AM 33.8 °F 23.9 °F 21.2 °F 60% 30.01 in 10.0 mi NNW 15.0 mph - N/A   Clear
10:55 AM 35.6 °F 25.9 °F 21.2 °F 56% 30.00 in 10.0 mi NNW 16.1 mph - N/A   Clear
11:15 AM 37.4 °F 29.8 °F 21.2 °F 52% 30.00 in 10.0 mi NNW 11.5 mph 18.4 mph N/A   Clear
11:35 AM 37.4 °F 27.5 °F 19.4 °F 48% 29.99 in 10.0 mi NW 18.4 mph 21.9 mph N/A   Clear
11:55 AM 39.2 °F 29.8 °F 19.4 °F 45% 29.99 in 10.0 mi NNW 18.4 mph 24.2 mph N/A   Clear
12:15 PM 41.0 °F 32.2 °F 19.4 °F 42% 29.98 in 10.0 mi NNW 18.4 mph 24.2 mph N/A   Clear
12:35 PM 41.0 °F 32.2 °F 19.4 °F 42% 29.98 in 10.0 mi NW 18.4 mph 25.3 mph N/A   Clear
12:55 PM 42.8 °F 35.4 °F 19.4 °F 39% 29.97 in 10.0 mi NW 15.0 mph 24.2 mph N/A   Clear
1:15 PM 42.8 °F 34.0 °F 19.4 °F 39% 29.97 in 10.0 mi WNW 20.7 mph 27.6 mph N/A   Clear
1:35 PM 42.8 °F 34.3 °F 17.6 °F 36% 29.96 in 10.0 mi NW 19.6 mph 28.8 mph N/A   Clear
1:55 PM 44.6 °F 37.2 °F 17.6 °F 34% 29.95 in 10.0 mi NW 17.3 mph 23.0 mph N/A   Clear
2:15 PM 44.6 °F 36.6 °F 17.6 °F 34% 29.95 in 10.0 mi NW 19.6 mph 27.6 mph N/A   Clear
2:35 PM 44.6 °F 36.6 °F 19.4 °F 37% 29.95 in 10.0 mi NW 19.6 mph 28.8 mph N/A   Clear
2:55 PM 46.4 °F 40.1 °F 19.4 °F 34% 29.94 in 10.0 mi NW 15.0 mph 27.6 mph N/A   Clear
3:15 PM 46.4 °F 39.0 °F 19.4 °F 34% 29.94 in 10.0 mi WNW 19.6 mph 32.2 mph N/A   Clear
3:35 PM 46.4 °F 39.5 °F 19.4 °F 34% 29.94 in 10.0 mi NW 17.3 mph 24.2 mph N/A   Clear
3:55 PM 46.4 °F 40.4 °F 19.4 °F 34% 29.93 in 10.0 mi NW 13.8 mph 26.5 mph N/A   Clear
4:15 PM 46.4 °F 39.2 °F 19.4 °F 34% 29.93 in 10.0 mi NW 18.4 mph 24.2 mph N/A   Clear
4:55 PM 46.4 °F 39.5 °F 19.4 °F 34% 29.92 in 10.0 mi NW 17.3 mph - N/A   Clear
5:15 PM 46.4 °F 39.5 °F 17.6 °F 32% 29.93 in 10.0 mi NW 17.3 mph 25.3 mph N/A   Clear
5:35 PM 46.4 °F 41.1 °F 19.4 °F 34% 29.93 in 10.0 mi NW 11.5 mph 21.9 mph N/A   Clear
5:55 PM 44.6 °F 38.4 °F 19.4 °F 37% 29.93 in 10.0 mi NW 12.7 mph 18.4 mph N/A   Clear
6:15 PM 42.8 °F 37.5 °F 21.2 °F 42% 29.92 in 10.0 mi NW 9.2 mph - N/A   Clear
6:35 PM 39.2 °F 33.0 °F 21.2 °F 49% 29.93 in 10.0 mi NW 9.2 mph - N/A   Clear
6:55 PM 37.4 °F 31.4 °F 21.2 °F 52% 29.93 in 10.0 mi NNW 8.1 mph - N/A   Clear
7:15 PM 35.6 °F 29.9 °F 21.2 °F 56% 29.93 in 10.0 mi NW 6.9 mph - N/A   Clear
7:35 PM 33.8 °F 28.6 °F 21.2 °F 60% 29.93 in 10.0 mi NNW 5.8 mph - N/A   Clear
7:55 PM 32.0 °F 28.7 °F 21.2 °F 64% 29.93 in 10.0 mi WNW 3.5 mph - N/A   Clear
8:15 PM 32.0 °F 24.2 °F 21.2 °F 64% 29.93 in 10.0 mi NNW 9.2 mph - N/A   Clear
8:40 PM 32.0 °F 24.8 °F 21.2 °F 64% 29.94 in 10.0 mi North 8.1 mph - N/A   Clear
8:55 PM 32.0 °F 25.6 °F 21.2 °F 64% 29.94 in 10.0 mi North 6.9 mph - N/A   Clear
9:15 PM 33.8 °F 27.0 °F 21.2 °F 60% 29.94 in 10.0 mi North 8.1 mph - N/A   Clear
9:35 PM 33.8 °F 27.7 °F 21.2 °F 60% 29.94 in 10.0 mi NNW 6.9 mph - N/A   Clear
9:55 PM 32.0 °F 25.6 °F 21.2 °F 64% 29.94 in 10.0 mi NNW 6.9 mph - N/A   Clear
10:15 PM 32.0 °F 25.6 °F 21.2 °F 64% 29.94 in 10.0 mi NNW 6.9 mph - N/A   Clear
10:35 PM 32.0 °F 25.6 °F 21.2 °F 64% 29.94 in 10.0 mi NNW 6.9 mph - N/A   Clear
10:55 PM 30.2 °F 23.4 °F 21.2 °F 69% 29.94 in 10.0 mi NNW 6.9 mph - N/A   Clear
11:15 PM 30.2 °F 23.4 °F 21.2 °F 69% 29.94 in 10.0 mi NNW 6.9 mph - N/A   Clear
11:35 PM 30.2 °F 23.4 °F 19.4 °F 64% 29.94 in 10.0 mi North 6.9 mph - N/A   Clear
11:55 PM 28.4 °F 23.3 °F 19.4 °F 69% 29.94 in 10.0 mi North 4.6 mph - N/A   Clear